Flag for Germany Weather past 2 weeks in Ilmenau, Thuringia, Germany

Now
70 °F

Scattered clouds.


Feels Like: 70 °F
Forecast: 54 / 76 °F
Wind: 7 mph from Northeast

Location: Erfurt-Bindersleben

Current Time: Jul 25, 2014 at 4:29:47 PM

Latest Report: Jul 25, 2014 at 3:50 PM


Visibility: N/A

Pressure: 29.95 "Hg

Humidity: 69%

Dew point: 59 °F

Location of IlmenauLocation

Historic Weather in Ilmenau — Graph

°F

Ilmenau temperature yesterday

Maximum temperature yesterday: 73 °F (at 12:50 PM)
Minimum temperature yesterday: 57 °F (at 3:50 AM)
Average temperature yesterday: 65 °F

Past Weeks' High & Low Weather Summary

 TemperatureHumidityPressure
High88 °F (Jul 19, 3:20 PM)100% (Jul 11, 3:20 AM)30.21 "Hg (Jul 11, 3:20 AM)
Low52 °F (Jul 13, 2:50 AM)25% (Jul 19, 6:20 PM)29.77 "Hg (Jul 10, 3:20 PM)
Average68 °F69%29.98 "Hg
* Reported Jul 10 3:20 PM — Jul 25 3:20 PM, Ilmenau, Weather by CustomWeather, © 2014

Note: Actual official high and low records may vary slightly from our data, if they occured in-between our weather recording intervals... More about our weather records

Advertising

Ilmenau weather history for previous 24 hours

 ConditionsComfort  
Time TempWeatherWind HumidityBarometerVisibility
3:20 PM
Jul 25
68 °FScattered clouds.6 mph73%29.95 "HgN/A
2:20 PM68 °FScattered clouds.7 mph78%29.95 "HgN/A
1:50 PM66 °FPartly sunny.5 mph78%29.95 "HgN/A
1:20 PM64 °FPartly sunny.1 mph83%29.98 "HgN/A
12:50 PM64 °FBroken clouds.2 mph83%29.98 "HgN/A
12:20 PM63 °FBroken clouds.3 mph94%29.98 "HgN/A
11:50 AM63 °FBroken clouds.3 mph88%29.98 "HgN/A
11:20 AM61 °FBroken clouds.3 mph94%29.98 "HgN/A
10:50 AM61 °FBroken clouds.3 mph94%29.98 "HgN/A
10:20 AM61 °FPartly sunny.5 mph94%29.98 "Hg5 mi
9:50 AM61 °FPartly sunny.5 mph94%29.98 "Hg4 mi
9:20 AM59 °FFog.3 mph100%29.98 "Hg3 mi
8:50 AM59 °FDrizzle. Fog.3 mph100%29.95 "Hg2 mi
8:20 AM59 °FDrizzle. Fog.3 mph100%29.95 "Hg2 mi
7:50 AM59 °FDrizzle. Fog.5 mph100%29.98 "Hg2 mi
7:20 AM59 °FDrizzle. Fog.5 mph100%29.95 "Hg1 mi
6:50 AM59 °FSleet. Cloudy.5 mph100%29.95 "Hg1 mi
6:20 AM59 °FPartly cloudy.6 mph100%29.95 "Hg1 mi
5:50 AM59 °FDrizzle. Fog.7 mph100%29.95 "Hg1 mi
5:20 AM59 °FDrizzle. Fog.8 mph100%29.95 "Hg0 mi
4:50 AM59 °FDrizzle. Fog.7 mph100%29.95 "Hg0 mi
4:20 AM59 °FDrizzle. Fog.8 mph100%29.95 "Hg1 mi
3:50 AM59 °FFog.8 mph100%29.95 "Hg0 mi
3:20 AM59 °FDrizzle. Fog.7 mph100%29.98 "Hg0 mi
2:50 AM59 °FDrizzle. Fog.6 mph100%29.98 "Hg1 mi
2:20 AM59 °FFog.6 mph100%29.98 "Hg2 mi
1:50 AM59 °FDrizzle. Fog.8 mph100%29.98 "Hg1 mi
1:20 AM59 °FDrizzle. Fog.8 mph100%29.98 "Hg1 mi
12:50 AM59 °FDrizzle. Fog.8 mph94%29.98 "Hg1 mi
12:20 AM59 °FDrizzle. Fog.9 mph100%29.98 "Hg1 mi
11:50 PM
Jul 24
61 °FPassing clouds.7 mph88%29.98 "Hg6 mi
11:20 PM61 °FPassing clouds.8 mph88%30.01 "HgN/A
10:50 PM61 °FPartly cloudy.12 mph88%30.01 "HgN/A
10:20 PM63 °FPartly cloudy.12 mph77%30.01 "HgN/A
9:50 PM64 °FPartly sunny.8 mph73%30.01 "HgN/A
9:20 PM64 °FPartly sunny.5 mph73%29.98 "HgN/A
8:50 PM66 °FPartly sunny.7 mph73%29.98 "HgN/A
8:20 PM66 °FSprinkles. Broken clouds.13 mph68%29.98 "HgN/A
7:50 PM68 °FScattered clouds.9 mph64%29.98 "HgN/A
7:20 PM68 °FScattered clouds.9 mph64%29.98 "HgN/A
6:50 PM68 °FScattered clouds.8 mph64%29.98 "HgN/A
6:20 PM68 °FScattered clouds.12 mph64%29.98 "HgN/A
5:50 PM68 °FScattered clouds.12 mph64%30.01 "HgN/A
5:20 PM68 °FScattered clouds.14 mph64%30.01 "HgN/A
4:50 PM68 °FScattered clouds.15 mph64%30.01 "HgN/A
4:20 PM68 °FScattered clouds.15 mph60%30.01 "HgN/A
Weather by CustomWeather, © 2014

See weather overviewHow to use our weather pages